weather.gov     
National Weather Service

Regional Weather Roundup
NWS Homepage
This page is being discontinued on March 12, 2014.
The same data is available at this site. Please update your bookmarks.
Thank you, and we apologize for the inconvenience.
Please send an email to SR-SRH.Webmaster@noaa.gov with any concerns.


Current Version
Previous Version:    01  02  03  04  05  06  07  08  09  10  11  12  13  14  15  16  17  18  19  20  21  22  23  24  25  26  
[Printable]
991
ASUS45 KSLC 312010
RWRUT

UTAH REGIONAL WEATHER ROUNDUP
NATIONAL WEATHER SERVICE SALT LAKE CITY UT
100 PM MST SAT JAN 31 2015

UTZ001>011-023>025-312100-

NORTHERN UTAH

CITY           SKY/WX    TMP DP  RH WIND       PRES   REMARKS
BRIGHAM CITY   SUNNY     45  29  52 N7        30.06R
HILL AFB       SUNNY     44  26  48 VRB2      30.04S
LOGAN          CLOUDY    39  29  67 N6        30.08R WCI  35
OGDEN          SUNNY     46  30  53 NW7       30.04S
PROVO AIRPORT  PTSUNNY   45  32  61 NW8       30.03S
SALT LAKE CITY MOSUNNY   44  31  60 NW9       30.04F
VERNAL         CLOUDY    40  36  86 SE10      29.94F WCI  33
WENDOVER       SUNNY     46  27  46 SE7       30.07S
HEBER CITY     SUNNY     43  30  61 W3        30.00F
WEST JORDAN    SUNNY     43  34  70 NW14G22   30.05R

$$

UTZ012>022-026-027-312100-

SOUTHERN/CENTRAL UTAH

CITY           SKY/WX    TMP DP  RH WIND       PRES   REMARKS
BLANDING       CLOUDY    38  37  93 S6        29.98F WCI  34
BRYCE CANYON   CLOUDY    34  31  88 N10       29.97F WCI  26
CEDAR CITY     CLOUDY    37  35  92 N12       30.00F WCI  29
DELTA          CLOUDY    44  35  72 N10       30.04S
HANKSVILLE     CLOUDY    41  37  87 CALM      29.96F
MILFORD        CLOUDY    41  35  79 N14       30.03F
MOAB/CYNLANDS  CLOUDY    43  38  82 NW7       29.92F
PRICE          SUNNY     45  38  76 S5        29.92F
ST GEORGE      CLEAR     55  39  54 CALM      29.95F
KANAB            N/A     48  36  61 E6        29.97F

$$

REGIONAL REPORTS     COLORADO/ARIZONA

CITY           SKY/WX    TMP DP  RH WIND       PRES   REMARKS
CRAIG, CO      CLOUDY    33  28  81 W12       29.92S WCI  24
GRAND JUNCTION CLOUDY    39  37  92 W5        29.92F
RIFLE          CLOUDY    39  36  89 CALM      29.89F
MONTROSE       LGT RAIN  37  34  89 CALM      29.92F
CORTEZ         CLOUDY    40  36  86 CALM      29.90F
PAGE, AZ       NOT AVBL
GRAND CANYON   CLOUDY    42  38  85 VRB5      29.93F
KINGMAN        PTSUNNY   53  45  74 N9        29.92S
FLAGSTAFF      CLOUDY    41  33  73 E5        29.93F

$$

REGIONAL REPORTS    NEVADA/IDAHO/WYOMING

CITY           SKY/WX    TMP DP  RH WIND       PRES   REMARKS
LAS VEGAS, NV  PTSUNNY   61  40  45 N8        29.90F
ELY            SUNNY     44  28  53 N13       30.07F
ELKO           SUNNY     43  26  51 SW13      30.12F
POCATELLO, ID  CLOUDY    34  29  82 W8        30.13F WCI  27
BURLEY         MOSUNNY   41  27  57 W17G25    30.12F
EVANSTON, WY   MOSUNNY   36  28  73 VRB6      29.99F WCI  31
ROCK SPRINGS   SUNNY     37  28  70 SW21      29.89F WCI  26
KEMMERER       SUNNY     34  27  75 W20       29.96R WCI  22

$$




U.S. Dept. of Commerce
NOAA National Weather Service
1325 East West Highway
Silver Spring, MD 20910
E-mail: w-nws.webmaster@noaa.gov
Page last modified: May 16, 2007
NATIONAL WEATHER SERVICE: for Safety, for Work, for Fun - FOR LIFE